Weather History for Coeur d'Alene, ID

Change the Weather History Date:

Tuesday, December 18, 2012

  Actual Average Record
Temperature  
Mean Temperature 26 °F -  
Max Temperature 30 °F 30 °F 44 °F (1999)
Min Temperature 23 °F 21 °F 3 °F (2005)
Degree Days  
Heating Degree Days 38    
Moisture  
Dew Point 22 °F    
Average Humidity 77    
Maximum Humidity 86    
Minimum Humidity 69    
Precipitation  
Precipitation 0.00 in - - ()
Sea Level Pressure  
Sea Level Pressure 29.87 in    
Wind  
Wind Speed 8 mph (SW)    
Max Wind Speed 20 mph    
Max Gust Speed 23 mph    
Visibility 10 miles    
Events      
Averages and records for this station are not official NWS values.
T = Trace of Precipitation, MM = Missing Value Source: NWS Daily Summary

Daily Weather History Graph

Daily Weather History Graph

Search for Another Location

Airport:

Trip Planner

Search our weather history database for the weather conditions in past years. The results will help you decide how hot, cold, wet, or windy it might be!

Date:

Astronomy

Dec. 18, 2012 Rise Set
Actual Time 7:32 AM PST 3:56 PM PST
Civil Twilight 6:55 AM PST 4:32 PM PST
Nautical Twilight 6:16 AM PST 5:12 PM PST
Astronomical Twilight 5:38 AM PST 5:49 PM PST
Moon 10:50 AM PST (12/18) 10:53 PM PST (12/18)
Length of Visible Light 9h 36m
Length of Day
8h 24m
Waxing Crescent, 36% of the Moon is Illuminated
Dec 18
Waxing Crescent
Dec 19
First Quarter
Dec 28
Full
Jan 4
Last Quarter
Jan 11
New

Hourly Weather History & Observations

Time (PST) Temp. Windchill Dew Point Humidity Pressure Visibility Wind Dir Wind Speed Gust Speed Precip Events Conditions
12:15 AM 28.4 °F 17.0 °F 23.0 °F 80% 29.78 in 10.0 mi SW 15.0 mph 20.7 mph N/A   Overcast
12:35 AM 28.4 °F 16.2 °F 21.2 °F 74% 29.79 in 10.0 mi WSW 17.3 mph 21.9 mph N/A   Overcast
12:55 AM 28.4 °F 15.4 °F 23.0 °F 80% 29.79 in 10.0 mi WSW 19.6 mph - N/A   Overcast
1:15 AM 28.4 °F 15.8 °F 21.2 °F 74% 29.79 in 10.0 mi SW 18.4 mph 23.0 mph N/A   Overcast
1:35 AM 28.4 °F 17.0 °F 21.2 °F 74% 29.80 in 10.0 mi SW 15.0 mph - N/A   Overcast
1:55 AM 28.4 °F 16.2 °F 21.2 °F 74% 29.81 in 10.0 mi SW 17.3 mph - N/A   Overcast
2:15 AM 28.4 °F 16.6 °F 21.2 °F 74% 29.81 in 10.0 mi SSW 16.1 mph 21.9 mph N/A   Overcast
2:35 AM 28.4 °F 17.5 °F 21.2 °F 74% 29.82 in 10.0 mi SW 13.8 mph 23.0 mph N/A   Overcast
2:55 AM 28.4 °F 19.1 °F 19.4 °F 69% 29.82 in 10.0 mi SW 10.4 mph - N/A   Overcast
3:15 AM 26.6 °F 17.5 °F 19.4 °F 74% 29.82 in 10.0 mi SSW 9.2 mph - N/A   Overcast
3:35 AM 28.4 °F 19.7 °F 21.2 °F 74% 29.82 in 10.0 mi SSW 9.2 mph - N/A   Overcast
3:55 AM 26.6 °F 17.5 °F 19.4 °F 74% 29.83 in 10.0 mi South 9.2 mph - N/A   Overcast
4:15 AM 24.8 °F 17.9 °F 17.6 °F 74% 29.83 in 10.0 mi SW 5.8 mph - N/A   Mostly Cloudy
4:35 AM 24.8 °F 17.9 °F 17.6 °F 74% 29.84 in 10.0 mi WSW 5.8 mph - N/A   Mostly Cloudy
4:55 AM 23.0 °F 14.7 °F 17.6 °F 80% 29.84 in 10.0 mi SW 6.9 mph - N/A   Overcast
5:15 AM 23.0 °F 17.0 °F 17.6 °F 80% 29.84 in 10.0 mi SW 4.6 mph - N/A   Mostly Cloudy
5:35 AM 24.8 °F 19.1 °F 19.4 °F 80% 29.85 in 10.0 mi WSW 4.6 mph - N/A   Mostly Cloudy
5:55 AM 24.8 °F - 19.4 °F 80% 29.85 in 10.0 mi Calm Calm - N/A   Mostly Cloudy
6:15 AM 24.8 °F - 19.4 °F 80% 29.86 in 10.0 mi Calm Calm - N/A   Overcast
6:35 AM 24.8 °F 19.1 °F 19.4 °F 80% 29.86 in 10.0 mi West 4.6 mph - N/A   Overcast
6:55 AM 26.6 °F - 21.2 °F 80% 29.86 in 10.0 mi Calm Calm - N/A   Overcast
7:15 AM 24.8 °F - 19.4 °F 80% 29.86 in 10.0 mi Calm Calm - N/A   Overcast
7:35 AM 26.6 °F - 21.2 °F 80% 29.86 in 10.0 mi Calm Calm - N/A   Overcast
7:55 AM 26.6 °F - 21.2 °F 80% 29.86 in 10.0 mi Calm Calm - N/A   Overcast
8:15 AM 26.6 °F - 21.2 °F 80% 29.87 in 10.0 mi Calm Calm - N/A   Overcast
8:35 AM 26.6 °F 20.0 °F 21.2 °F 80% 29.87 in 10.0 mi NW 5.8 mph - N/A   Overcast
8:55 AM 28.4 °F - 21.2 °F 74% 29.88 in 10.0 mi Calm Calm - N/A   Overcast
9:15 AM 28.4 °F 23.3 °F 23.0 °F 80% 29.88 in 10.0 mi West 4.6 mph - N/A   Overcast
9:35 AM 28.4 °F 24.6 °F 23.0 °F 80% 29.88 in 10.0 mi West 3.5 mph - N/A   Overcast
9:55 AM 28.4 °F 23.3 °F 23.0 °F 80% 29.89 in 10.0 mi West 4.6 mph - N/A   Overcast
10:15 AM 28.4 °F 22.2 °F 23.0 °F 80% 29.89 in 10.0 mi West 5.8 mph - N/A   Overcast
10:35 AM 28.4 °F 22.2 °F 23.0 °F 80% 29.89 in 10.0 mi West 5.8 mph - N/A   Overcast
10:55 AM 28.4 °F 24.6 °F 23.0 °F 80% 29.88 in 10.0 mi WSW 3.5 mph - N/A   Overcast
11:15 AM 28.4 °F 24.6 °F 23.0 °F 80% 29.88 in 10.0 mi West 3.5 mph - N/A   Overcast
11:35 AM 28.4 °F 22.2 °F 23.0 °F 80% 29.88 in 10.0 mi West 5.8 mph - N/A   Overcast
11:55 AM 30.2 °F 26.7 °F 23.0 °F 75% 29.88 in 10.0 mi West 3.5 mph - N/A   Overcast
12:15 PM 30.2 °F 26.7 °F 23.0 °F 75% 29.87 in 10.0 mi West 3.5 mph - N/A   Overcast
12:35 PM 30.2 °F - 23.0 °F 75% 29.87 in 10.0 mi Calm Calm - N/A   Overcast
12:55 PM 30.2 °F - 23.0 °F 75% 29.87 in 10.0 mi Calm Calm - N/A   Overcast
1:15 PM 30.2 °F 25.4 °F 23.0 °F 75% 29.87 in 10.0 mi West 4.6 mph - N/A   Overcast
1:35 PM 30.2 °F - 23.0 °F 75% 29.86 in 9.0 mi Calm Calm - N/A   Mostly Cloudy
1:55 PM 30.2 °F 26.7 °F 21.2 °F 69% 29.86 in 7.0 mi West 3.5 mph - N/A   Overcast
2:15 PM 30.2 °F 25.4 °F 24.8 °F 80% 29.86 in 10.0 mi South 4.6 mph - N/A   Mostly Cloudy
2:35 PM 30.2 °F 25.4 °F 24.8 °F 80% 29.87 in 10.0 mi South 4.6 mph - N/A   Overcast
2:55 PM 30.2 °F 26.7 °F 24.8 °F 80% 29.87 in 10.0 mi South 3.5 mph - N/A   Overcast
3:15 PM 30.2 °F - 24.8 °F 80% 29.87 in 10.0 mi Calm Calm - N/A   Overcast
3:35 PM 30.2 °F 26.7 °F 24.8 °F 80% 29.87 in 10.0 mi West 3.5 mph - N/A   Overcast
3:55 PM 30.2 °F 26.7 °F 23.0 °F 75% 29.87 in 10.0 mi SW 3.5 mph - N/A   Overcast
4:15 PM 30.2 °F 25.4 °F 24.8 °F 80% 29.87 in 10.0 mi SSW 4.6 mph - N/A   Overcast
4:35 PM 30.2 °F 24.3 °F 24.8 °F 80% 29.88 in 10.0 mi South 5.8 mph - N/A   Overcast
4:55 PM 30.2 °F 26.7 °F 24.8 °F 80% 29.88 in 10.0 mi South 3.5 mph - N/A   Overcast
5:15 PM 30.2 °F 24.3 °F 24.8 °F 80% 29.89 in 10.0 mi SSW 5.8 mph - N/A   Overcast
5:35 PM 30.2 °F 23.4 °F 23.0 °F 75% 29.89 in 10.0 mi SW 6.9 mph - N/A   Overcast
5:55 PM 30.2 °F 21.3 °F 24.8 °F 80% 29.89 in 10.0 mi WSW 10.4 mph - N/A   Overcast
6:15 PM 30.2 °F 24.3 °F 23.0 °F 75% 29.89 in 10.0 mi WSW 5.8 mph - N/A   Overcast
6:35 PM 30.2 °F 23.4 °F 23.0 °F 75% 29.89 in 10.0 mi WSW 6.9 mph - N/A   Overcast
6:55 PM 30.2 °F 23.4 °F 23.0 °F 75% 29.89 in 10.0 mi SSW 6.9 mph - N/A   Overcast
7:15 PM 30.2 °F 21.9 °F 21.2 °F 69% 29.90 in 10.0 mi SW 9.2 mph - N/A   Overcast
7:35 PM 30.2 °F 21.9 °F 21.2 °F 69% 29.90 in 10.0 mi WSW 9.2 mph - N/A   Overcast
7:55 PM 28.4 °F 22.2 °F 21.2 °F 74% 29.90 in 10.0 mi SW 5.8 mph - N/A   Overcast
8:15 PM 28.4 °F 24.6 °F 23.0 °F 80% 29.91 in 10.0 mi SSW 3.5 mph - N/A   Overcast
8:35 PM 28.4 °F 21.2 °F 23.0 °F 80% 29.91 in 10.0 mi South 6.9 mph - N/A   Overcast
8:55 PM 28.4 °F 23.3 °F 23.0 °F 80% 29.91 in 10.0 mi South 4.6 mph - N/A   Overcast
9:15 PM 28.4 °F - 21.2 °F 74% 29.91 in 10.0 mi Calm Calm - N/A   Overcast
9:35 PM 28.4 °F - 24.8 °F 86% 29.92 in 10.0 mi Calm Calm - N/A   Overcast
9:55 PM 28.4 °F - 21.2 °F 74% 29.92 in 10.0 mi Calm Calm - N/A   Overcast
10:15 PM 28.4 °F - 21.2 °F 74% 29.93 in 10.0 mi Calm Calm - N/A   Overcast
10:35 PM 28.4 °F 24.6 °F 24.8 °F 86% 29.93 in 10.0 mi South 3.5 mph - N/A   Overcast
10:55 PM 28.4 °F 22.2 °F 21.2 °F 74% 29.93 in 10.0 mi South 5.8 mph - N/A   Mostly Cloudy
11:15 PM 28.4 °F 21.2 °F 23.0 °F 80% 29.93 in 10.0 mi South 6.9 mph - N/A   Overcast
11:35 PM 28.4 °F 22.2 °F 23.0 °F 80% 29.93 in 10.0 mi South 5.8 mph - N/A   Overcast
11:55 PM 28.4 °F 24.6 °F 23.0 °F 80% 29.93 in 10.0 mi SSW 3.5 mph - N/A   Overcast